Terug naar catalogus

COSMOS 1947

GLONASS

ActiefNavigatieMEO
NORAD 19164·PAYLOAD·🇷🇺 Russia

Gelanceerd May 21, 1988 vanaf Baikonur Cosmodrome

Loading…

Volgende Passages (komende 24 uur)

TLE

VersSource: Space-Track

Epoch: Sep 13, 2026, 09:47 UTC

1 19164U 88043B   26256.40771751 -.00000008  00000-0  00000-0 0  9996
2 19164  65.0193  70.5197 0023884 223.9145 139.8317  2.13104110293185

Volg COSMOS 1947 in realtime met AllMySat

Download on the App Store